Regional Weather Roundup
Issued by NWS

Home | Current Version | Previous Version | Graphics & Text | Print | Product List | Glossary On
Versions: 1 2 3 4 5 6 7 8 9 10 11 12 13 14 15 16 17 18 19 20 21 22 23 24 25 26 27 28 29 30 31 32 33 34 35 36 37 38 39 40 41 42 43 44 45 46 47 48 49 50
000
ASUS43 KTOP 172208
RWRKS

WEATHER ROUNDUP FOR KANSAS
NATIONAL WEATHER SERVICE GOODLAND KS
400 PM CST WED DEC 17 2014

NOTE:  "FAIR" INDICATES FEW OR NO CLOUDS BELOW 12,000 FEET WITH NO
SIGNIFICANT WEATHER AND/OR OBSTRUCTIONS TO VISIBILITY.

KSZ001>006-013>018-027>032-041>047-172300-
NORTHWEST KANSAS

CITY           SKY/WX    TMP DP  RH WIND       PRES   REMARKS
GOODLAND       FOG       25  24  96 E9        29.99F VSB 1/4
HAYS           CLOUDY    30  19  64 E15       30.11R WCI  19
HILL CITY      CLOUDY    29  23  78 E10       30.11R WCI  20
RUSSELL        CLOUDY    30  24  78 E13       30.12S WCI  20
$$

KSZ061>065-074>080-084>089-172300-
SOUTHWEST KANSAS

CITY           SKY/WX    TMP DP  RH WIND       PRES   REMARKS
DODGE CITY     CLOUDY    33  28  81 SE14      30.03S WCI  23
ELKHART          N/A     47  29  50 N9          N/A
GARDEN CITY    CLOUDY    36  29  75 SE17      29.99R WCI  26
GREAT BEND       N/A    N/A N/A N/A MISG        N/A
LIBERAL        CLOUDY    39  28  65 SE16      29.98F WCI  30
PRATT          MIX PCPN  32  28  86 SE10      30.10F WCI  24
$$

KSZ066>073-081>083-090>101-172300-
SOUTHEAST KANSAS

CITY           SKY/WX    TMP DP  RH WIND       PRES   REMARKS
CHANUTE        CLOUDY    32  27  81 E5        30.21F
COFFEYVILLE    LGT RAIN  33  30  88 E6        30.20F FOG
HUTCHINSON     CLOUDY    32  24  72 E12       30.14F WCI  23
MEDICINE LODGE   N/A     32  30  92 E10       30.12R WCI  24
NEWTON         CLOUDY    30  21  69 E9        30.16F
PARSONS        MIX PCPN  32  29  88 VRB5      30.21F FOG
WICHITA INTL   LGTSLEET  32  28  85 E9        30.13F
WICHITA JABRA  FRZ RAIN  30  29  96 E7        30.14F
WICHITA MCCONL FRZ RAIN  31  29  93 NE7       30.14F
WINFIELD       CLOUDY    32  30  92 E9        30.16F
$$

KSZ007>012-019>026-033>040-048>060-102>105-172300-
NORTHEAST KANSAS

CITY           SKY/WX    TMP DP  RH WIND       PRES   REMARKS
CONCORDIA      CLOUDY    28  19  69 E9        30.19S
EMPORIA        CLOUDY    29  25  85 E8        30.21R
LAWRENCE       CLOUDY    30  20  66 E7        30.25F
MANHATTAN      CLOUDY    28  20  71 E5        30.25R
MARYSVILLE     CLOUDY    30  21  69 E6        30.22F
OLATHE IND     CLOUDY    30  22  72 E5        30.25R
OLATHE EXE     CLOUDY    31  22  69 NE6       30.22F
SALINA         CLOUDY    28  22  78 NE10      30.19F WCI  19
TOPEKA BILLARD CLOUDY    30  21  69 E5        30.25S
TOPEKA FORBES  CLOUDY    30  22  72 E7        30.22F
$$



USA.gov is the U.S. government's official web portal to all federal, state and local government web resources and services.